Theta_e
359 359 354 354 356 352 353 354 358 359 360 361 363 362 363 357 358 360 359 362 362 355
361 360 355 358 364 356 366 363 363 362 360 359 360 361 362 356 358 360 361 359 361 357
357 360 360 360 363 359 360 363 362 362 362 362 362 363 365 359 361 360 357 354 358 359
356 357 359 358 361 363 365 363 362 363 362 361 362 362 364 362 360 360 359 359 358 359
358 358 356 358 359 363 363 364 363 362 361 360 361 361 362 360 358 358 357 356 358 356
356 357 356 358 360 362 361 362 360 360 360 359 359 359 360 361 359 359 358 357 357 356
356 356 356 359 361 360 362 361 360 360 361 360 358 358 360 359 359 358 357 360 358 357
358 359 361 360 361 361 359 358 359 358 358 359 359 356 359 359 358 358 357 359 359 358
360 360 360 358 359 358 356 356 356 356 356 355 353 324 324 332 351 355 355 355 356 358
357 355 358 358 357 354 350 354 352 354 353 347 347 321 321 324 338 349 352 354 355 354
347 349 354 347 346 346 347 347 347 349 345 345 339 317 321 328 336 347 352 349 352 354
344 346 343 341 342 343 343 344 339 332 326 325 322 314 319 330 344 341 335 330 336 335
346 345 340 341 340 341 341 334 328 322 322 319 324 314 314 326 344 342 340 338 329 313
336 336 340 341 338 334 327 323 321 319 318 319 319 317 312 312 337 337 338 337 335 332
Wind_Speed
10 6 8 9 5 7 6 7 8 9 8 8 7 5 5 6 6 5 6 5 5 6
10 10 8 5 5 9 9 8 8 9 9 9 9 8 7 7 6 6 6 5 6 7
11 10 9 8 8 6 5 6 6 7 9 11 10 10 9 6 7 6 6 7 5 6
11 11 9 9 8 7 7 6 6 7 7 8 8 9 9 8 8 8 8 8 5 7
11 10 10 9 9 7 7 7 7 6 6 6 8 8 9 10 9 10 10 10 9 9
13 12 11 11 9 8 7 7 7 6 6 6 7 8 8 8 9 10 10 10 10 10
14 13 12 11 10 9 7 7 7 6 6 6 6 7 8 8 8 9 9 9 10 10
13 12 11 11 10 10 8 7 6 5 5 6 6 3 3 5 6 7 8 8 8 10
11 12 12 11 11 10 8 8 7 7 5 5 3 8 1 4 6 6 7 7 6 5
9 12 12 11 11 8 5 5 6 7 6 4 3 3 2 2 4 6 5 6 6 6
5 3 9 6 5 3 3 7 5 6 2 2 0 6 7 3 4 6 2 4 5 3
6 8 6 6 6 5 5 3 3 2 4 3 1 8 4 2 3 1 2 1 2 1
5 6 6 7 6 4 4 6 6 6 5 6 5 9 9 4 4 5 5 4 5 4
4 2 2 4 2 5 6 7 7 7 5 6 6 5 8 9 3 3 3 2 4 4
Wind_Direction
215 209 221 214 202 227 234 241 229 233 227 224 227 224 229 235 245 228 252 259 291 295
205 225 222 242 200 207 203 222 233 226 227 231 221 222 226 242 227 250 242 241 243 262
211 213 221 227 217 229 233 225 225 226 218 219 222 219 219 242 215 237 252 245 244 267
209 213 216 226 226 221 217 216 214 218 225 227 228 227 229 242 262 235 240 258 259 258
210 217 215 218 229 219 212 200 202 204 218 236 235 232 231 236 254 231 240 240 246 255
212 210 218 213 217 208 206 207 209 208 218 221 227 233 237 244 247 252 244 245 245 251
213 213 213 209 208 207 208 214 218 223 231 229 222 225 236 240 244 258 252 253 259 258
218 214 214 214 216 210 206 209 215 212 225 245 253 272 304 284 266 264 265 265 257 247
233 214 207 211 208 208 211 216 219 223 225 207 200 83 28 286 277 275 275 278 269 181
243 222 214 206 204 209 210 226 229 222 226 201 173 75 293 240 279 293 280 273 272 205
242 239 215 167 177 190 180 222 228 216 152 242 52 356 337 284 261 254 313 333 309 247
213 197 185 211 206 196 205 192 122 90 105 112 8 357 320 238 185 253 261 337 359 160
226 216 203 200 183 184 179 117 118 100 69 51 46 11 332 316 230 206 229 203 158 73
85 61 207 146 98 100 106 114 124 116 85 54 29 35 349 9 280 299 240 239 192 121